owner,sensor,date,latitude,longitude,vertical_datum,mass_concentration_of_oxygen_in_sea_water,qcFlag 
DISL,ioos:station:DISL:CATA:1,2009-06-01T00:00:00Z,30.3085,-88.1395,2.551,9.43,1111122 
DISL,ioos:station:DISL:CATA:1,2009-06-01T00:30:00Z,30.3085,-88.1395,2.554,9.44,1111122 
DISL,ioos:station:DISL:CATA:1,2009-06-01T01:00:00Z,30.3085,-88.1395,2.563,9.33,1111122 
DISL,ioos:station:DISL:CATA:1,2009-06-01T01:30:00Z,30.3085,-88.1395,2.554,9.2,1111122 
DISL,ioos:station:DISL:CATA:1,2009-06-01T02:00:00Z,30.3085,-88.1395,2.553,8.98,1111122 
DISL,ioos:station:DISL:CATA:1,2009-06-01T02:30:00Z,30.3085,-88.1395,2.547,8.75,1111122 
DISL,ioos:station:DISL:CATA:1,2009-06-01T03:00:00Z,30.3085,-88.1395,2.543,8.19,1111122 
DISL,ioos:station:DISL:CATA:1,2009-06-01T03:30:00Z,30.3085,-88.1395,2.528,8.18,1111122 
DISL,ioos:station:DISL:CATA:1,2009-06-01T04:00:00Z,30.3085,-88.1395,2.519,8.35,1111122 
DISL,ioos:station:DISL:CATA:1,2009-06-01T04:30:00Z,30.3085,-88.1395,2.524,8.22,1111122 
DISL,ioos:station:DISL:CATA:1,2009-06-01T05:00:00Z,30.3085,-88.1395,2.529,7.07,1111122 
DISL,ioos:station:DISL:CATA:1,2009-06-01T05:30:00Z,30.3085,-88.1395,2.526,6.35,1111122 
DISL,ioos:station:DISL:CATA:1,2009-06-01T06:00:00Z,30.3085,-88.1395,2.537,6.36,1111122 
DISL,ioos:station:DISL:CATA:1,2009-06-01T06:30:00Z,30.3085,-88.1395,2.548,6.76,1111122 
DISL,ioos:station:DISL:CATA:1,2009-06-01T07:00:00Z,30.3085,-88.1395,2.548,7.54,1111122 
DISL,ioos:station:DISL:CATA:1,2009-06-01T07:30:00Z,30.3085,-88.1395,2.543,7.27,1111122 
DISL,ioos:station:DISL:CATA:1,2009-06-01T08:00:00Z,30.3085,-88.1395,2.541,7.43,1111122 
DISL,ioos:station:DISL:CATA:1,2009-06-01T08:30:00Z,30.3085,-88.1395,2.549,7.72,1111122 
DISL,ioos:station:DISL:CATA:1,2009-06-01T09:00:00Z,30.3085,-88.1395,2.553,7.64,1111122 
DISL,ioos:station:DISL:CATA:1,2009-06-01T09:30:00Z,30.3085,-88.1395,2.557,7.57,1111122 
DISL,ioos:station:DISL:CATA:1,2009-06-01T10:00:00Z,30.3085,-88.1395,2.557,7.51,1111122 
DISL,ioos:station:DISL:CATA:1,2009-06-01T10:30:00Z,30.3085,-88.1395,2.566,7.41,1111122 
DISL,ioos:station:DISL:CATA:1,2009-06-01T11:00:00Z,30.3085,-88.1395,2.576,6.65,1111122 
DISL,ioos:station:DISL:CATA:1,2009-06-01T11:30:00Z,30.3085,-88.1395,2.583,6.28,1111122 
DISL,ioos:station:DISL:CATA:1,2009-06-01T12:00:00Z,30.3085,-88.1395,2.595,5.85,1111122 
DISL,ioos:station:DISL:CATA:1,2009-06-01T12:30:00Z,30.3085,-88.1395,2.615,5.55,1111122 
DISL,ioos:station:DISL:CATA:1,2009-06-01T13:00:00Z,30.3085,-88.1395,2.606,5.24,1111122 
DISL,ioos:station:DISL:CATA:1,2009-06-01T13:30:00Z,30.3085,-88.1395,2.613,5.15,1111122 
DISL,ioos:station:DISL:CATA:1,2009-06-01T14:00:00Z,30.3085,-88.1395,2.611,5.07,1111122 
DISL,ioos:station:DISL:CATA:1,2009-06-01T14:30:00Z,30.3085,-88.1395,2.61,4.99,1111122 
DISL,ioos:station:DISL:CATA:1,2009-06-01T15:00:00Z,30.3085,-88.1395,2.589,4.9,1111122 
DISL,ioos:station:DISL:CATA:1,2009-06-01T15:30:00Z,30.3085,-88.1395,2.572,4.93,1111122 
DISL,ioos:station:DISL:CATA:1,2009-06-01T16:00:00Z,30.3085,-88.1395,2.568,4.44,1111122 
DISL,ioos:station:DISL:CATA:1,2009-06-01T16:30:00Z,30.3085,-88.1395,2.546,4.77,1111122 
DISL,ioos:station:DISL:CATA:1,2009-06-01T17:00:00Z,30.3085,-88.1395,2.532,6.82,1111122 
DISL,ioos:station:DISL:CATA:1,2009-06-01T17:30:00Z,30.3085,-88.1395,2.514,9.18,1111122 
DISL,ioos:station:DISL:CATA:1,2009-06-01T18:00:00Z,30.3085,-88.1395,2.517,9.63,1111122 
DISL,ioos:station:DISL:CATA:1,2009-06-01T18:30:00Z,30.3085,-88.1395,2.492,10.04,1111122 
DISL,ioos:station:DISL:CATA:1,2009-06-01T19:00:00Z,30.3085,-88.1395,2.478,10.32,1111122 
DISL,ioos:station:DISL:CATA:1,2009-06-01T19:30:00Z,30.3085,-88.1395,2.478,10.52,1111122 
DISL,ioos:station:DISL:CATA:1,2009-06-01T20:00:00Z,30.3085,-88.1395,2.477,10.89,1111122 
DISL,ioos:station:DISL:CATA:1,2009-06-01T20:30:00Z,30.3085,-88.1395,2.468,10.94,1111122 
DISL,ioos:station:DISL:CATA:1,2009-06-01T21:00:00Z,30.3085,-88.1395,2.468,10.87,1111122 
DISL,ioos:station:DISL:CATA:1,2009-06-01T21:30:00Z,30.3085,-88.1395,2.464,10.69,1111122 
DISL,ioos:station:DISL:CATA:1,2009-06-01T22:00:00Z,30.3085,-88.1395,2.468,10.52,1111122 
DISL,ioos:station:DISL:CATA:1,2009-06-01T22:30:00Z,30.3085,-88.1395,2.441,11.14,1111122 
DISL,ioos:station:DISL:CATA:1,2009-06-01T23:00:00Z,30.3085,-88.1395,2.454,10.69,1111122 
DISL,ioos:station:DISL:CATA:1,2009-06-01T23:30:00Z,30.3085,-88.1395,2.453,10.5,1111122 
DISL,ioos:station:DISL:CATA:1,2009-06-02T00:00:00Z,30.3085,-88.1395,2.453,10.28,1111122 
DISL,ioos:station:DISL:CATA:1,2009-06-02T00:30:00Z,30.3085,-88.1395,2.469,10.12,1111122 
DISL,ioos:station:DISL:CATA:1,2009-06-02T01:00:00Z,30.3085,-88.1395,2.494,9.93,1111122 
DISL,ioos:station:DISL:CATA:1,2009-06-02T01:30:00Z,30.3085,-88.1395,2.503,9.69,1111122 
DISL,ioos:station:DISL:CATA:1,2009-06-02T02:00:00Z,30.3085,-88.1395,2.51,9.41,1111122 
DISL,ioos:station:DISL:CATA:1,2009-06-02T02:30:00Z,30.3085,-88.1395,2.513,9.48,1111122 
DISL,ioos:station:DISL:CATA:1,2009-06-02T03:00:00Z,30.3085,-88.1395,2.508,9.16,1111122 
DISL,ioos:station:DISL:CATA:1,2009-06-02T03:30:00Z,30.3085,-88.1395,2.505,8.72,1111122 
DISL,ioos:station:DISL:CATA:1,2009-06-02T04:00:00Z,30.3085,-88.1395,2.513,8.43,1111122 
DISL,ioos:station:DISL:CATA:1,2009-06-02T04:30:00Z,30.3085,-88.1395,2.53,8.09,1111122 
DISL,ioos:station:DISL:CATA:1,2009-06-02T05:00:00Z,30.3085,-88.1395,2.545,7.84,1111122 
DISL,ioos:station:DISL:CATA:1,2009-06-02T05:30:00Z,30.3085,-88.1395,2.559,7.78,1111122 
DISL,ioos:station:DISL:CATA:1,2009-06-02T06:00:00Z,30.3085,-88.1395,2.561,7.64,1111122 
DISL,ioos:station:DISL:CATA:1,2009-06-02T06:30:00Z,30.3085,-88.1395,2.583,7.56,1111122 
DISL,ioos:station:DISL:CATA:1,2009-06-02T07:00:00Z,30.3085,-88.1395,2.605,7.49,1111122 
DISL,ioos:station:DISL:CATA:1,2009-06-02T07:30:00Z,30.3085,-88.1395,2.621,7.59,1111122 
DISL,ioos:station:DISL:CATA:1,2009-06-02T08:00:00Z,30.3085,-88.1395,2.635,7.4,1111122 
DISL,ioos:station:DISL:CATA:1,2009-06-02T08:30:00Z,30.3085,-88.1395,2.656,7.19,1111122 
DISL,ioos:station:DISL:CATA:1,2009-06-02T09:00:00Z,30.3085,-88.1395,2.67,6.94,1111122 
DISL,ioos:station:DISL:CATA:1,2009-06-02T09:30:00Z,30.3085,-88.1395,2.674,6.6,1111122 
DISL,ioos:station:DISL:CATA:1,2009-06-02T10:00:00Z,30.3085,-88.1395,2.682,6.25,1111122 
DISL,ioos:station:DISL:CATA:1,2009-06-02T10:30:00Z,30.3085,-88.1395,2.709,6.4,1111122 
DISL,ioos:station:DISL:CATA:1,2009-06-02T11:00:00Z,30.3085,-88.1395,2.705,6.37,1111122 
DISL,ioos:station:DISL:CATA:1,2009-06-02T11:30:00Z,30.3085,-88.1395,2.713,5.92,1111122 
DISL,ioos:station:DISL:CATA:1,2009-06-02T12:00:00Z,30.3085,-88.1395,2.72,5.7,1111122 
DISL,ioos:station:DISL:CATA:1,2009-06-02T12:30:00Z,30.3085,-88.1395,2.727,5.66,1111122 
DISL,ioos:station:DISL:CATA:1,2009-06-02T13:00:00Z,30.3085,-88.1395,2.719,4.92,1111122 
DISL,ioos:station:DISL:CATA:1,2009-06-02T13:30:00Z,30.3085,-88.1395,2.703,4.97,1111122 
DISL,ioos:station:DISL:CATA:1,2009-06-02T14:00:00Z,30.3085,-88.1395,2.689,4.3,1111122 
DISL,ioos:station:DISL:CATA:1,2009-06-02T14:30:00Z,30.3085,-88.1395,2.684,5.03,1111122 
DISL,ioos:station:DISL:CATA:1,2009-06-02T15:00:00Z,30.3085,-88.1395,2.673,5.97,1111122 
DISL,ioos:station:DISL:CATA:1,2009-06-02T15:30:00Z,30.3085,-88.1395,2.659,6.48,1111122 
DISL,ioos:station:DISL:CATA:1,2009-06-02T16:00:00Z,30.3085,-88.1395,2.628,6.16,1111122 
DISL,ioos:station:DISL:CATA:1,2009-06-02T16:30:00Z,30.3085,-88.1395,2.611,7.03,1111122 
DISL,ioos:station:DISL:CATA:1,2009-06-02T17:00:00Z,30.3085,-88.1395,2.604,7.88,1111122 
DISL,ioos:station:DISL:CATA:1,2009-06-02T17:30:00Z,30.3085,-88.1395,2.578,8.56,1111122 
DISL,ioos:station:DISL:CATA:1,2009-06-02T18:00:00Z,30.3085,-88.1395,2.546,8.93,1111122 
DISL,ioos:station:DISL:CATA:1,2009-06-02T18:30:00Z,30.3085,-88.1395,2.522,9.29,1111122 
DISL,ioos:station:DISL:CATA:1,2009-06-02T19:00:00Z,30.3085,-88.1395,2.501,9.61,1111122 
DISL,ioos:station:DISL:CATA:1,2009-06-02T19:30:00Z,30.3085,-88.1395,2.478,9.83,1111122 
DISL,ioos:station:DISL:CATA:1,2009-06-02T20:00:00Z,30.3085,-88.1395,2.46,10.02,1111122 
DISL,ioos:station:DISL:CATA:1,2009-06-02T20:30:00Z,30.3085,-88.1395,2.458,10.2,1111122 
DISL,ioos:station:DISL:CATA:1,2009-06-02T21:00:00Z,30.3085,-88.1395,2.446,10.31,1111122 
DISL,ioos:station:DISL:CATA:1,2009-06-02T21:30:00Z,30.3085,-88.1395,2.437,10.42,1111122 
DISL,ioos:station:DISL:CATA:1,2009-06-02T22:00:00Z,30.3085,-88.1395,2.423,10.41,1111122 
DISL,ioos:station:DISL:CATA:1,2009-06-02T22:30:00Z,30.3085,-88.1395,2.426,10.49,1111122 
DISL,ioos:station:DISL:CATA:1,2009-06-02T23:00:00Z,30.3085,-88.1395,2.435,10.38,1111122 
DISL,ioos:station:DISL:CATA:1,2009-06-02T23:30:00Z,30.3085,-88.1395,2.448,10.19,1111122 
DISL,ioos:station:DISL:CATA:1,2009-06-03T00:00:00Z,30.3085,-88.1395,2.464,9.85,1111122 
DISL,ioos:station:DISL:CATA:1,2009-06-03T00:30:00Z,30.3085,-88.1395,2.456,9.62,1111122 
DISL,ioos:station:DISL:CATA:1,2009-06-03T01:00:00Z,30.3085,-88.1395,2.458,10.05,1111122 
DISL,ioos:station:DISL:CATA:1,2009-06-03T01:30:00Z,30.3085,-88.1395,2.468,10.07,1111122 
DISL,ioos:station:DISL:CATA:1,2009-06-03T02:00:00Z,30.3085,-88.1395,2.487,9.96,1111122 
DISL,ioos:station:DISL:CATA:1,2009-06-03T02:30:00Z,30.3085,-88.1395,2.495,9.77,1111122 
DISL,ioos:station:DISL:CATA:1,2009-06-03T03:00:00Z,30.3085,-88.1395,2.496,9.32,1111122 
DISL,ioos:station:DISL:CATA:1,2009-06-03T03:30:00Z,30.3085,-88.1395,2.503,9.11,1111122 
DISL,ioos:station:DISL:CATA:1,2009-06-03T04:00:00Z,30.3085,-88.1395,2.53,8.88,1111122 
DISL,ioos:station:DISL:CATA:1,2009-06-03T04:30:00Z,30.3085,-88.1395,2.532,8.82,1111122 
DISL,ioos:station:DISL:CATA:1,2009-06-03T05:00:00Z,30.3085,-88.1395,2.564,8.61,1111122 
DISL,ioos:station:DISL:CATA:1,2009-06-03T05:30:00Z,30.3085,-88.1395,2.606,8.39,1111122 
DISL,ioos:station:DISL:CATA:1,2009-06-03T06:00:00Z,30.3085,-88.1395,2.624,8.36,1111122 
DISL,ioos:station:DISL:CATA:1,2009-06-03T06:30:00Z,30.3085,-88.1395,2.635,8.35,1111122 
DISL,ioos:station:DISL:CATA:1,2009-06-03T07:00:00Z,30.3085,-88.1395,2.649,7.73,1111122 
DISL,ioos:station:DISL:CATA:1,2009-06-03T07:30:00Z,30.3085,-88.1395,2.669,7.3,1111122 
DISL,ioos:station:DISL:CATA:1,2009-06-03T08:00:00Z,30.3085,-88.1395,2.672,7.12,1111122 
DISL,ioos:station:DISL:CATA:1,2009-06-03T08:30:00Z,30.3085,-88.1395,2.665,6.74,1111122 
DISL,ioos:station:DISL:CATA:1,2009-06-03T09:00:00Z,30.3085,-88.1395,2.708,6.79,1111122 
DISL,ioos:station:DISL:CATA:1,2009-06-03T09:30:00Z,30.3085,-88.1395,2.741,6.49,1111122 
DISL,ioos:station:DISL:CATA:1,2009-06-03T10:00:00Z,30.3085,-88.1395,2.741,6.39,1111122 
DISL,ioos:station:DISL:CATA:1,2009-06-03T10:30:00Z,30.3085,-88.1395,2.758,6.44,1111122 
DISL,ioos:station:DISL:CATA:1,2009-06-03T11:00:00Z,30.3085,-88.1395,2.773,6.47,1111122 
DISL,ioos:station:DISL:CATA:1,2009-06-03T11:30:00Z,30.3085,-88.1395,2.81,5.93,1111122 
DISL,ioos:station:DISL:CATA:1,2009-06-03T12:00:00Z,30.3085,-88.1395,2.791,5.96,1111122 
DISL,ioos:station:DISL:CATA:1,2009-06-03T12:30:00Z,30.3085,-88.1395,2.718,5.95,1111122 
DISL,ioos:station:DISL:CATA:1,2009-06-03T13:00:00Z,30.3085,-88.1395,2.76,5.75,1111122 
DISL,ioos:station:DISL:CATA:1,2009-06-03T13:30:00Z,30.3085,-88.1395,2.743,5.21,1111122 
DISL,ioos:station:DISL:CATA:1,2009-06-03T14:00:00Z,30.3085,-88.1395,2.752,3.47,1111122 
DISL,ioos:station:DISL:CATA:1,2009-06-03T14:30:00Z,30.3085,-88.1395,2.743,3.75,1111122 
DISL,ioos:station:DISL:CATA:1,2009-06-03T15:00:00Z,30.3085,-88.1395,2.725,6.65,1111122 
DISL,ioos:station:DISL:CATA:1,2009-06-03T15:30:00Z,30.3085,-88.1395,2.711,6.82,1111122 
DISL,ioos:station:DISL:CATA:1,2009-06-03T16:00:00Z,30.3085,-88.1395,2.661,6.2,1111122 
DISL,ioos:station:DISL:CATA:1,2009-06-03T16:30:00Z,30.3085,-88.1395,2.64,5.67,1111122 
DISL,ioos:station:DISL:CATA:1,2009-06-03T17:00:00Z,30.3085,-88.1395,2.622,5.3,1111122 
DISL,ioos:station:DISL:CATA:1,2009-06-03T17:30:00Z,30.3085,-88.1395,2.606,6.95,1111122 
DISL,ioos:station:DISL:CATA:1,2009-06-03T18:00:00Z,30.3085,-88.1395,2.558,7.19,1111122 
DISL,ioos:station:DISL:CATA:1,2009-06-03T18:30:00Z,30.3085,-88.1395,2.501,7.72,1111122 
DISL,ioos:station:DISL:CATA:1,2009-06-03T19:00:00Z,30.3085,-88.1395,2.478,7.87,1111122 
DISL,ioos:station:DISL:CATA:1,2009-06-03T19:30:00Z,30.3085,-88.1395,2.451,8.09,1111122 
DISL,ioos:station:DISL:CATA:1,2009-06-03T20:00:00Z,30.3085,-88.1395,2.44,8.0,1111122 
DISL,ioos:station:DISL:CATA:1,2009-06-03T20:30:00Z,30.3085,-88.1395,2.416,7.94,1111122 
DISL,ioos:station:DISL:CATA:1,2009-06-03T21:00:00Z,30.3085,-88.1395,2.411,7.97,1111122 
DISL,ioos:station:DISL:CATA:1,2009-06-03T21:30:00Z,30.3085,-88.1395,2.402,7.98,1111122 
DISL,ioos:station:DISL:CATA:1,2009-06-03T22:00:00Z,30.3085,-88.1395,2.39,8.11,1111122 
DISL,ioos:station:DISL:CATA:1,2009-06-03T22:30:00Z,30.3085,-88.1395,2.374,8.0,1111122 
DISL,ioos:station:DISL:CATA:1,2009-06-03T23:00:00Z,30.3085,-88.1395,2.384,7.92,1111122 
DISL,ioos:station:DISL:CATA:1,2009-06-03T23:30:00Z,30.3085,-88.1395,2.393,7.88,1111122 
DISL,ioos:station:DISL:CATA:1,2009-06-04T00:00:00Z,30.3085,-88.1395,2.378,7.86,1111122 
DISL,ioos:station:DISL:CATA:1,2009-06-04T00:30:00Z,30.3085,-88.1395,2.389,7.89,1111122 
DISL,ioos:station:DISL:CATA:1,2009-06-04T01:00:00Z,30.3085,-88.1395,2.404,8.18,1111122 
DISL,ioos:station:DISL:CATA:1,2009-06-04T01:30:00Z,30.3085,-88.1395,2.445,8.12,1111122 
DISL,ioos:station:DISL:CATA:1,2009-06-04T02:00:00Z,30.3085,-88.1395,2.465,7.98,1111122 
DISL,ioos:station:DISL:CATA:1,2009-06-04T02:30:00Z,30.3085,-88.1395,2.472,7.77,1111122 
DISL,ioos:station:DISL:CATA:1,2009-06-04T03:00:00Z,30.3085,-88.1395,2.489,7.21,1111122 
DISL,ioos:station:DISL:CATA:1,2009-06-04T03:30:00Z,30.3085,-88.1395,2.531,7.6,1111122 
DISL,ioos:station:DISL:CATA:1,2009-06-04T04:00:00Z,30.3085,-88.1395,2.547,7.71,1111122 
DISL,ioos:station:DISL:CATA:1,2009-06-04T04:30:00Z,30.3085,-88.1395,2.555,7.63,1111122 
DISL,ioos:station:DISL:CATA:1,2009-06-04T05:00:00Z,30.3085,-88.1395,2.608,7.66,1111122 
DISL,ioos:station:DISL:CATA:1,2009-06-04T05:30:00Z,30.3085,-88.1395,2.618,7.61,1111122 
DISL,ioos:station:DISL:CATA:1,2009-06-04T06:00:00Z,30.3085,-88.1395,2.631,7.58,1111122 
DISL,ioos:station:DISL:CATA:1,2009-06-04T06:30:00Z,30.3085,-88.1395,2.621,7.52,1111122 
DISL,ioos:station:DISL:CATA:1,2009-06-04T07:00:00Z,30.3085,-88.1395,2.676,7.22,1111122 
DISL,ioos:station:DISL:CATA:1,2009-06-04T07:30:00Z,30.3085,-88.1395,2.668,6.69,1111122 
DISL,ioos:station:DISL:CATA:1,2009-06-04T08:00:00Z,30.3085,-88.1395,2.705,6.95,1111122 
DISL,ioos:station:DISL:CATA:1,2009-06-04T08:30:00Z,30.3085,-88.1395,2.752,7.24,1111122 
DISL,ioos:station:DISL:CATA:1,2009-06-04T09:00:00Z,30.3085,-88.1395,2.766,7.26,1111122 
DISL,ioos:station:DISL:CATA:1,2009-06-04T09:30:00Z,30.3085,-88.1395,2.782,7.16,1111122 
DISL,ioos:station:DISL:CATA:1,2009-06-04T10:00:00Z,30.3085,-88.1395,2.789,7.11,1111122 
DISL,ioos:station:DISL:CATA:1,2009-06-04T10:30:00Z,30.3085,-88.1395,2.814,7.08,1111122 
DISL,ioos:station:DISL:CATA:1,2009-06-04T11:00:00Z,30.3085,-88.1395,2.845,7.02,1111122 
DISL,ioos:station:DISL:CATA:1,2009-06-04T11:30:00Z,30.3085,-88.1395,2.861,6.93,1111122 
DISL,ioos:station:DISL:CATA:1,2009-06-04T12:00:00Z,30.3085,-88.1395,2.869,6.9,1111122 
DISL,ioos:station:DISL:CATA:1,2009-06-04T12:30:00Z,30.3085,-88.1395,2.85,4.34,1111122 
DISL,ioos:station:DISL:CATA:1,2009-06-04T13:00:00Z,30.3085,-88.1395,2.845,2.68,1111122 
DISL,ioos:station:DISL:CATA:1,2009-06-04T13:30:00Z,30.3085,-88.1395,2.833,2.24,1111122 
DISL,ioos:station:DISL:CATA:1,2009-06-04T14:00:00Z,30.3085,-88.1395,2.831,2.25,1111122 
DISL,ioos:station:DISL:CATA:1,2009-06-04T14:30:00Z,30.3085,-88.1395,2.822,2.45,1111122 
DISL,ioos:station:DISL:CATA:1,2009-06-04T15:00:00Z,30.3085,-88.1395,2.802,2.55,1111122 
DISL,ioos:station:DISL:CATA:1,2009-06-04T15:30:00Z,30.3085,-88.1395,2.779,2.28,1111122 
DISL,ioos:station:DISL:CATA:1,2009-06-04T16:00:00Z,30.3085,-88.1395,2.756,2.13,1111122 
DISL,ioos:station:DISL:CATA:1,2009-06-04T16:30:00Z,30.3085,-88.1395,2.72,2.06,1111122 
DISL,ioos:station:DISL:CATA:1,2009-06-04T17:00:00Z,30.3085,-88.1395,2.718,2.23,1111122 
DISL,ioos:station:DISL:CATA:1,2009-06-04T17:30:00Z,30.3085,-88.1395,2.693,2.45,1111122 
DISL,ioos:station:DISL:CATA:1,2009-06-04T18:00:00Z,30.3085,-88.1395,2.673,2.87,1111122 
DISL,ioos:station:DISL:CATA:1,2009-06-04T18:30:00Z,30.3085,-88.1395,2.614,2.66,1111122 
DISL,ioos:station:DISL:CATA:1,2009-06-04T19:00:00Z,30.3085,-88.1395,2.573,3.14,1111122 
DISL,ioos:station:DISL:CATA:1,2009-06-04T19:30:00Z,30.3085,-88.1395,2.531,2.55,1111122 
DISL,ioos:station:DISL:CATA:1,2009-06-04T20:00:00Z,30.3085,-88.1395,2.488,2.55,1111122 
DISL,ioos:station:DISL:CATA:1,2009-06-04T20:30:00Z,30.3085,-88.1395,2.451,6.35,1111122 
DISL,ioos:station:DISL:CATA:1,2009-06-04T21:00:00Z,30.3085,-88.1395,2.444,6.49,1111122 
DISL,ioos:station:DISL:CATA:1,2009-06-04T21:30:00Z,30.3085,-88.1395,2.434,6.43,1111122 
DISL,ioos:station:DISL:CATA:1,2009-06-04T22:00:00Z,30.3085,-88.1395,2.426,6.61,1111122 
DISL,ioos:station:DISL:CATA:1,2009-06-04T22:30:00Z,30.3085,-88.1395,2.398,7.53,1111122 
DISL,ioos:station:DISL:CATA:1,2009-06-04T23:00:00Z,30.3085,-88.1395,2.381,7.62,1111122 
DISL,ioos:station:DISL:CATA:1,2009-06-04T23:30:00Z,30.3085,-88.1395,2.363,7.69,1111122 
DISL,ioos:station:DISL:CATA:1,2009-06-05T00:00:00Z,30.3085,-88.1395,2.352,8.13,1111122 
DISL,ioos:station:DISL:CATA:1,2009-06-05T00:30:00Z,30.3085,-88.1395,2.342,7.91,1111122 
DISL,ioos:station:DISL:CATA:1,2009-06-05T01:00:00Z,30.3085,-88.1395,2.334,7.73,1111122 
DISL,ioos:station:DISL:CATA:1,2009-06-05T01:30:00Z,30.3085,-88.1395,2.347,7.56,1111122 
DISL,ioos:station:DISL:CATA:1,2009-06-05T02:00:00Z,30.3085,-88.1395,2.367,6.74,1111122 
DISL,ioos:station:DISL:CATA:1,2009-06-05T02:30:00Z,30.3085,-88.1395,2.397,6.42,1111122 
DISL,ioos:station:DISL:CATA:1,2009-06-05T03:00:00Z,30.3085,-88.1395,2.431,6.04,1111122 
DISL,ioos:station:DISL:CATA:1,2009-06-05T03:30:00Z,30.3085,-88.1395,2.431,5.63,1111122 
DISL,ioos:station:DISL:CATA:1,2009-06-05T04:00:00Z,30.3085,-88.1395,2.382,5.69,1111122 
DISL,ioos:station:DISL:CATA:1,2009-06-05T04:30:00Z,30.3085,-88.1395,2.393,5.71,1111122 
DISL,ioos:station:DISL:CATA:1,2009-06-05T05:00:00Z,30.3085,-88.1395,2.426,5.64,1111122 
DISL,ioos:station:DISL:CATA:1,2009-06-05T05:30:00Z,30.3085,-88.1395,2.477,6.72,1111122 
DISL,ioos:station:DISL:CATA:1,2009-06-05T06:00:00Z,30.3085,-88.1395,2.457,7.12,1111122 
DISL,ioos:station:DISL:CATA:1,2009-06-05T06:30:00Z,30.3085,-88.1395,2.462,7.13,1111122 
DISL,ioos:station:DISL:CATA:1,2009-06-05T07:00:00Z,30.3085,-88.1395,2.491,7.05,1111122 
DISL,ioos:station:DISL:CATA:1,2009-06-05T07:30:00Z,30.3085,-88.1395,2.516,7.09,1111122 
DISL,ioos:station:DISL:CATA:1,2009-06-05T08:00:00Z,30.3085,-88.1395,2.573,7.05,1111122 
DISL,ioos:station:DISL:CATA:1,2009-06-05T08:30:00Z,30.3085,-88.1395,2.587,6.82,1111122 
DISL,ioos:station:DISL:CATA:1,2009-06-05T09:00:00Z,30.3085,-88.1395,2.599,6.78,1111122 
DISL,ioos:station:DISL:CATA:1,2009-06-05T09:30:00Z,30.3085,-88.1395,2.64,6.61,1111122 
DISL,ioos:station:DISL:CATA:1,2009-06-05T10:00:00Z,30.3085,-88.1395,2.665,6.58,1111122 
DISL,ioos:station:DISL:CATA:1,2009-06-05T10:30:00Z,30.3085,-88.1395,2.672,6.75,1111122 
DISL,ioos:station:DISL:CATA:1,2009-06-05T11:00:00Z,30.3085,-88.1395,2.709,6.76,1111122 
DISL,ioos:station:DISL:CATA:1,2009-06-05T11:30:00Z,30.3085,-88.1395,2.741,6.81,1111122 
DISL,ioos:station:DISL:CATA:1,2009-06-05T12:00:00Z,30.3085,-88.1395,2.751,6.88,1111122 
DISL,ioos:station:DISL:CATA:1,2009-06-05T12:30:00Z,30.3085,-88.1395,2.775,6.87,1111122 
DISL,ioos:station:DISL:CATA:1,2009-06-05T13:00:00Z,30.3085,-88.1395,2.783,6.86,1111122 
DISL,ioos:station:DISL:CATA:1,2009-06-05T13:30:00Z,30.3085,-88.1395,2.776,6.88,1111122 
DISL,ioos:station:DISL:CATA:1,2009-06-05T14:00:00Z,30.3085,-88.1395,2.782,6.92,1111122 
DISL,ioos:station:DISL:CATA:1,2009-06-05T14:30:00Z,30.3085,-88.1395,2.776,7.01,1111122 
DISL,ioos:station:DISL:CATA:1,2009-06-05T15:00:00Z,30.3085,-88.1395,2.781,6.96,1111122 
DISL,ioos:station:DISL:CATA:1,2009-06-05T15:30:00Z,30.3085,-88.1395,2.778,6.86,1111122 
DISL,ioos:station:DISL:CATA:1,2009-06-05T16:00:00Z,30.3085,-88.1395,2.748,6.83,1111122 
DISL,ioos:station:DISL:CATA:1,2009-06-05T16:30:00Z,30.3085,-88.1395,2.705,6.6,1111122 
DISL,ioos:station:DISL:CATA:1,2009-06-05T17:00:00Z,30.3085,-88.1395,2.696,6.19,1111122 
DISL,ioos:station:DISL:CATA:1,2009-06-05T17:30:00Z,30.3085,-88.1395,2.682,5.9,1111122 
DISL,ioos:station:DISL:CATA:1,2009-06-05T18:00:00Z,30.3085,-88.1395,2.653,5.96,1111122 
DISL,ioos:station:DISL:CATA:1,2009-06-05T18:30:00Z,30.3085,-88.1395,2.616,5.97,1111122 
DISL,ioos:station:DISL:CATA:1,2009-06-05T19:00:00Z,30.3085,-88.1395,2.587,6.17,1111122 
DISL,ioos:station:DISL:CATA:1,2009-06-05T19:30:00Z,30.3085,-88.1395,2.532,6.62,1111122 
DISL,ioos:station:DISL:CATA:1,2009-06-05T20:00:00Z,30.3085,-88.1395,2.482,6.37,1111122 
DISL,ioos:station:DISL:CATA:1,2009-06-05T20:30:00Z,30.3085,-88.1395,2.438,6.28,1111122 
DISL,ioos:station:DISL:CATA:1,2009-06-05T21:00:00Z,30.3085,-88.1395,2.389,5.65,1111122 
DISL,ioos:station:DISL:CATA:1,2009-06-05T21:30:00Z,30.3085,-88.1395,2.363,5.92,1111122 
DISL,ioos:station:DISL:CATA:1,2009-06-05T22:00:00Z,30.3085,-88.1395,2.324,6.43,1111122 
DISL,ioos:station:DISL:CATA:1,2009-06-05T22:30:00Z,30.3085,-88.1395,2.297,6.71,1111122 
DISL,ioos:station:DISL:CATA:1,2009-06-05T23:00:00Z,30.3085,-88.1395,2.283,6.89,1111122 
DISL,ioos:station:DISL:CATA:1,2009-06-05T23:30:00Z,30.3085,-88.1395,2.265,7.11,1111122 
DISL,ioos:station:DISL:CATA:1,2009-06-06T00:00:00Z,30.3085,-88.1395,2.271,7.21,1111122 
DISL,ioos:station:DISL:CATA:1,2009-06-06T00:30:00Z,30.3085,-88.1395,2.259,7.32,1111122 
DISL,ioos:station:DISL:CATA:1,2009-06-06T01:00:00Z,30.3085,-88.1395,2.251,7.17,1111122 
DISL,ioos:station:DISL:CATA:1,2009-06-06T01:30:00Z,30.3085,-88.1395,2.232,7.32,1111122 
DISL,ioos:station:DISL:CATA:1,2009-06-06T02:00:00Z,30.3085,-88.1395,2.203,7.43,1111122 
DISL,ioos:station:DISL:CATA:1,2009-06-06T02:30:00Z,30.3085,-88.1395,2.197,7.54,1111122 
DISL,ioos:station:DISL:CATA:1,2009-06-06T03:00:00Z,30.3085,-88.1395,2.223,7.48,1111122 
DISL,ioos:station:DISL:CATA:1,2009-06-06T03:30:00Z,30.3085,-88.1395,2.246,7.19,1111122 
DISL,ioos:station:DISL:CATA:1,2009-06-06T04:00:00Z,30.3085,-88.1395,2.273,7.25,1111122 
DISL,ioos:station:DISL:CATA:1,2009-06-06T04:30:00Z,30.3085,-88.1395,2.299,7.15,1111122 
DISL,ioos:station:DISL:CATA:1,2009-06-06T05:00:00Z,30.3085,-88.1395,2.327,7.29,1111122 
DISL,ioos:station:DISL:CATA:1,2009-06-06T05:30:00Z,30.3085,-88.1395,2.347,7.38,1111122 
DISL,ioos:station:DISL:CATA:1,2009-06-06T06:00:00Z,30.3085,-88.1395,2.378,7.37,1111122 
DISL,ioos:station:DISL:CATA:1,2009-06-06T06:30:00Z,30.3085,-88.1395,2.413,7.07,1111122 
DISL,ioos:station:DISL:CATA:1,2009-06-06T07:00:00Z,30.3085,-88.1395,2.439,6.89,1111122 
DISL,ioos:station:DISL:CATA:1,2009-06-06T07:30:00Z,30.3085,-88.1395,2.46,6.71,1111122 
DISL,ioos:station:DISL:CATA:1,2009-06-06T08:00:00Z,30.3085,-88.1395,2.488,6.62,1111122 
DISL,ioos:station:DISL:CATA:1,2009-06-06T08:30:00Z,30.3085,-88.1395,2.525,6.66,1111122 
DISL,ioos:station:DISL:CATA:1,2009-06-06T09:00:00Z,30.3085,-88.1395,2.559,6.43,1111122 
DISL,ioos:station:DISL:CATA:1,2009-06-06T09:30:00Z,30.3085,-88.1395,2.589,6.92,1111122 
DISL,ioos:station:DISL:CATA:1,2009-06-06T10:00:00Z,30.3085,-88.1395,2.623,7.06,1111122 
DISL,ioos:station:DISL:CATA:1,2009-06-06T10:30:00Z,30.3085,-88.1395,2.674,6.75,1111122 
DISL,ioos:station:DISL:CATA:1,2009-06-06T11:00:00Z,30.3085,-88.1395,2.716,6.56,1111122 
DISL,ioos:station:DISL:CATA:1,2009-06-06T11:30:00Z,30.3085,-88.1395,2.738,6.51,1111122 
DISL,ioos:station:DISL:CATA:1,2009-06-06T12:00:00Z,30.3085,-88.1395,2.77,6.36,1111122 
DISL,ioos:station:DISL:CATA:1,2009-06-06T12:30:00Z,30.3085,-88.1395,2.799,6.36,1111122 
DISL,ioos:station:DISL:CATA:1,2009-06-06T13:00:00Z,30.3085,-88.1395,2.81,6.48,1111122 
DISL,ioos:station:DISL:CATA:1,2009-06-06T13:30:00Z,30.3085,-88.1395,2.818,6.59,1111122 
DISL,ioos:station:DISL:CATA:1,2009-06-06T14:00:00Z,30.3085,-88.1395,2.843,6.62,1111122 
DISL,ioos:station:DISL:CATA:1,2009-06-06T14:30:00Z,30.3085,-88.1395,2.841,6.05,1111122 
DISL,ioos:station:DISL:CATA:1,2009-06-06T15:00:00Z,30.3085,-88.1395,2.833,5.71,1111122 